Llano, TX

9:17 PM CDT on August 17, 2017 (GMT -0500)
Llano

Weather History for KAQO - December, 2013

Change the Weather History Date:

Tuesday, December 3, 2013

  Actual Average (KBMQ) Record (KBMQ)
Temperature  
Mean Temperature 60 °F -  
Max Temperature 82 °F 60 °F 84 °F (2005)
Min Temperature 37 °F 42 °F 33 °F (2006)
Degree Days  
Heating Degree Days 6    
Growing Degree Days 10 (Base 50)    
Moisture  
Dew Point 39 °F    
Average Humidity 61    
Maximum Humidity 93    
Minimum Humidity 17    
Precipitation  
Precipitation 0.00 in - - ()
Sea Level Pressure  
Sea Level Pressure 29.70 in    
Wind  
Wind Speed 2 mph (WSW)    
Max Wind Speed 10 mph    
Max Gust Speed 16 mph    
Visibility 10 miles    
Events      
Averages and records for this station are not official NWS values.
T = Trace of Precipitation, MM = Missing Value Source: NWS Daily Summary

Daily Weather History Graph

Daily Weather History Graph

Search for Another Location

Airport or City:

Trip Planner

Search our weather history database for the weather conditions in past years. The results will help you decide how hot, cold, wet, or windy it might be!

Date:

Astronomy

Dec. 03, 2013 Rise Set
Actual Time 7:16 AM CST 5:32 PM CST
Civil Twilight 6:50 AM CST 5:59 PM CST
Nautical Twilight 6:20 AM CST 6:28 PM CST
Astronomical Twilight 5:50 AM CST 6:58 PM CST
Moon 7:48 AM CST (12/3) 6:36 PM CST (12/3)
Length of Visible Light 11h 08m
Length of Day
10h 16m
New Moon, 1% of the Moon is Illuminated
Dec 3
New Moon
Dec 9
First Quarter
Dec 17
Full
Dec 25
Last Quarter
Jan 1
New

Hourly Weather History & Observations

Time (CST) Temp. Windchill Dew Point Humidity Pressure Visibility Wind Dir Wind Speed Gust Speed Precip Events Conditions
12:15 AM 44.6 °F - 39.2 °F 81% 29.75 in 10.0 mi Calm Calm - N/A   Clear
12:35 AM 42.8 °F - 37.4 °F 81% 29.75 in 10.0 mi Calm Calm - N/A   Clear
12:55 AM 42.8 °F - 37.4 °F 81% 29.74 in 10.0 mi Calm Calm - N/A   Clear
1:15 AM 42.8 °F - 37.4 °F 81% 29.74 in 10.0 mi Calm Calm - N/A   Clear
1:35 AM 39.2 °F - 37.4 °F 93% 29.73 in 10.0 mi Calm Calm - N/A   Clear
1:55 AM 41.0 °F - 37.4 °F 87% 29.73 in 10.0 mi Calm Calm - N/A   Clear
2:15 AM 41.0 °F - 37.4 °F 87% 29.72 in 10.0 mi Calm Calm - N/A   Clear
2:35 AM 39.2 °F - 37.4 °F 93% 29.72 in 10.0 mi Calm Calm - N/A   Clear
2:55 AM 41.0 °F - 37.4 °F 87% 29.71 in 10.0 mi Calm Calm - N/A   Clear
3:15 AM 39.2 °F - 37.4 °F 93% 29.71 in 10.0 mi Calm Calm - N/A   Clear
3:35 AM 41.0 °F - 37.4 °F 87% 29.71 in 10.0 mi Calm Calm - N/A   Clear
3:55 AM 39.2 °F - 37.4 °F 93% 29.71 in 10.0 mi Calm Calm - N/A   Clear
4:15 AM 39.2 °F - 37.4 °F 93% 29.70 in 10.0 mi Calm Calm - N/A   Clear
4:35 AM 37.4 °F 34.9 °F 35.6 °F 93% 29.70 in 10.0 mi West 3.5 mph - N/A   Clear
4:55 AM 37.4 °F - 35.6 °F 93% 29.70 in 10.0 mi Calm Calm - N/A   Clear
5:15 AM 37.4 °F - 35.6 °F 93% 29.70 in 10.0 mi Calm Calm - N/A   Clear
5:35 AM 39.2 °F - 37.4 °F 93% 29.70 in 10.0 mi Calm Calm - N/A   Clear
5:55 AM 39.2 °F - 37.4 °F 93% 29.71 in 10.0 mi Calm Calm - N/A   Clear
6:15 AM 39.2 °F - 37.4 °F 93% 29.71 in 10.0 mi Calm Calm - N/A   Clear
6:35 AM 39.2 °F - 35.6 °F 87% 29.72 in 10.0 mi Calm Calm - N/A   Clear
6:55 AM 37.4 °F - 35.6 °F 93% 29.72 in 10.0 mi Calm Calm - N/A   Clear
7:15 AM 37.4 °F - 35.6 °F 93% 29.72 in 10.0 mi Calm Calm - N/A   Clear
7:35 AM 37.4 °F - 35.6 °F 93% 29.72 in 10.0 mi Calm Calm - N/A   Clear
7:55 AM 39.2 °F - 37.4 °F 93% 29.72 in 10.0 mi Calm Calm - N/A   Clear
8:15 AM 44.6 °F - 42.8 °F 93% 29.73 in 10.0 mi Calm Calm - N/A   Clear
8:35 AM 48.2 °F - 44.6 °F 87% 29.74 in 10.0 mi Calm Calm - N/A   Clear
8:55 AM 51.8 °F - 46.4 °F 82% 29.74 in 10.0 mi Calm Calm - N/A   Clear
9:15 AM 55.4 °F - 46.4 °F 72% 29.74 in 10.0 mi WSW 3.5 mph - N/A   Clear
9:35 AM 60.8 °F - 44.6 °F 55% 29.75 in 10.0 mi West 5.8 mph - N/A   Clear
9:55 AM 64.4 °F - 42.8 °F 45% 29.75 in 10.0 mi WSW 9.2 mph - N/A   Clear
10:15 AM 66.2 °F - 41.0 °F 40% 29.75 in 10.0 mi West 8.1 mph - N/A   Clear
10:35 AM 69.8 °F - 37.4 °F 31% 29.75 in 10.0 mi West 10.4 mph - N/A   Clear
10:55 AM 71.6 °F - 37.4 °F 29% 29.75 in 10.0 mi West 10.4 mph - N/A   Clear
11:15 AM 71.6 °F - 39.2 °F 31% 29.74 in 10.0 mi WSW 8.1 mph - N/A   Clear
11:35 AM 75.2 °F - 39.2 °F 27% 29.73 in 10.0 mi West 6.9 mph - N/A   Clear
11:55 AM 77.0 °F - 35.6 °F 22% 29.72 in 10.0 mi WSW 9.2 mph - N/A   Clear
12:15 PM 78.8 °F - 35.6 °F 21% 29.70 in 10.0 mi WSW 8.1 mph - N/A   Clear
12:35 PM 80.6 °F - 35.6 °F 20% 29.68 in 10.0 mi West 6.9 mph - N/A   Clear
12:55 PM 80.6 °F - 35.6 °F 20% 29.67 in 10.0 mi WSW 8.1 mph - N/A   Clear
1:15 PM 82.4 °F - 35.6 °F 19% 29.66 in 10.0 mi WSW 9.2 mph - N/A   Clear
1:35 PM 82.4 °F - 35.6 °F 19% 29.66 in 10.0 mi WSW 6.9 mph - N/A   Clear
1:55 PM 82.4 °F - 33.8 °F 17% 29.65 in 10.0 mi WSW 8.1 mph - N/A   Clear
2:15 PM 82.4 °F - 33.8 °F 17% 29.64 in 10.0 mi SW 10.4 mph - N/A   Clear
2:35 PM 82.4 °F - 33.8 °F 17% 29.64 in 10.0 mi WSW 10.4 mph 16.1 mph N/A   Clear
2:55 PM 82.4 °F - 33.8 °F 17% 29.64 in 10.0 mi West 8.1 mph - N/A   Clear
3:15 PM 82.4 °F - 35.6 °F 19% 29.64 in 10.0 mi WSW 8.1 mph - N/A   Clear
3:35 PM 82.4 °F - 35.6 °F 19% 29.64 in 10.0 mi SW 8.1 mph - N/A   Clear
3:55 PM 82.4 °F - 35.6 °F 19% 29.64 in 10.0 mi SW 9.2 mph - N/A   Clear
4:15 PM 82.4 °F - 35.6 °F 19% 29.64 in 10.0 mi WSW 8.1 mph - N/A   Clear
4:35 PM 80.6 °F - 37.4 °F 21% 29.64 in 10.0 mi SW 6.9 mph - N/A   Partly Cloudy
4:55 PM 78.8 °F - 37.4 °F 23% 29.64 in 10.0 mi SW 5.8 mph - N/A   Clear
5:15 PM 75.2 °F - 39.2 °F 27% 29.64 in 10.0 mi SW 3.5 mph - N/A   Clear
5:35 PM 69.8 °F - 41.0 °F 35% 29.65 in 10.0 mi Calm Calm - N/A   Clear
5:55 PM 66.2 °F - 41.0 °F 40% 29.66 in 10.0 mi Calm Calm - N/A   Clear
6:15 PM 62.6 °F - 42.8 °F 48% 29.66 in 10.0 mi Calm Calm - N/A   Clear
6:35 PM 60.8 °F - 42.8 °F 52% 29.66 in 10.0 mi Calm Calm - N/A   Clear
6:55 PM 59.0 °F - 44.6 °F 59% 29.67 in 10.0 mi Calm Calm - N/A   Clear
7:15 PM 57.2 °F - 42.8 °F 59% 29.68 in 10.0 mi Calm Calm - N/A   Clear
7:35 PM 53.6 °F - 42.8 °F 67% 29.69 in 10.0 mi Calm Calm - N/A   Clear
7:55 PM 57.2 °F - 42.8 °F 59% 29.69 in 10.0 mi Calm Calm - N/A   Clear
8:15 PM 53.6 °F - 42.8 °F 67% 29.70 in 10.0 mi Calm Calm - N/A   Clear
8:35 PM 51.8 °F - 42.8 °F 71% 29.70 in 10.0 mi Calm Calm - N/A   Clear
8:55 PM 50.0 °F - 42.8 °F 76% 29.71 in 10.0 mi Calm Calm - N/A   Clear
9:15 PM 50.0 °F - 42.8 °F 76% 29.71 in 10.0 mi Calm Calm - N/A   Clear
9:35 PM 50.0 °F - 42.8 °F 76% 29.71 in 10.0 mi Calm Calm - N/A   Clear
9:55 PM 51.8 °F - 42.8 °F 71% 29.72 in 10.0 mi Calm Calm - N/A   Clear
10:15 PM 50.0 °F - 41.0 °F 71% 29.72 in 10.0 mi Calm Calm - N/A   Clear
10:35 PM 48.2 °F - 41.0 °F 76% 29.72 in 10.0 mi Calm Calm - N/A   Clear
10:55 PM 48.2 °F - 41.0 °F 76% 29.72 in 10.0 mi Calm Calm - N/A   Clear
11:15 PM 46.4 °F - 41.0 °F 81% 29.72 in 10.0 mi Calm Calm - N/A   Clear
11:35 PM 50.0 °F - 41.0 °F 71% 29.71 in 10.0 mi Calm Calm - N/A   Clear
11:55 PM 48.2 °F - 41.0 °F 76% 29.71 in 10.0 mi Calm Calm - N/A   Clear